Weather History for KABE - December, 2011

Change the Weather History Date:

Saturday, December 24, 2011

  Actual Average Record
Temperature  
Mean Temperature 30 °F 30 °F  
Max Temperature 38 °F 38 °F 62 °F (1990)
Min Temperature 22 °F 22 °F -5 °F (1989)
Degree Days  
Heating Degree Days 35 35  
Month to date heating degree days 617 763  
Since 1 July heating degree days 1554 1943  
Cooling Degree Days 0 0  
Month to date cooling degree days 0 0  
Year to date cooling degree days 1075 757  
Moisture  
Dew Point 19 °F    
Average Humidity 63    
Maximum Humidity 81    
Minimum Humidity 44    
Precipitation  
Precipitation 0.00 in 0.11 in 1.48 in (2008)
Month to date precipitation 3.13 2.89  
Year to date precipitation 70.67 44.66  
Snow  
Snow 0.00 in 0.20 in 13.50 in (1912)
Month to date snowfall T 3.6  
Since 1 July snowfall 6.8 4.3  
Snow Depth 0.00 in    
Sea Level Pressure  
Sea Level Pressure 30.39 in    
Wind  
Wind Speed 4 mph (North)    
Max Wind Speed 13 mph    
Max Gust Speed 17 mph    
Visibility 10 miles    
Events      
T = Trace of Precipitation, MM = Missing Value Source: NWS Daily Summary

Daily Weather History Graph

Daily Weather History Graph

Search for Another Location

Airport or City:

Trip Planner

Search our weather history database for the weather conditions in past years. The results will help you decide how hot, cold, wet, or windy it might be!

Date:

Astronomy

Dec. 24, 2011 Rise Set
Actual Time 7:23 AM EST 4:39 PM EST
Civil Twilight 6:52 AM EST 5:10 PM EST
Nautical Twilight 6:17 AM EST 5:44 PM EST
Astronomical Twilight 5:44 AM EST 6:17 PM EST
Moon 7:09 AM EST (12/24) 4:49 PM EST (12/24)
Length of Visible Light 10h 17m
Length of Day
9h 15m
Waning Crescent, 0% of the Moon is Illuminated
Dec 24
Waning Crescent
Dec 24
New
Jan 1
First Quarter
Jan 9
Full
Jan 16
Last Quarter

Hourly Weather History & Observations

Time (EST) Temp. Windchill Dew Point Humidity Pressure Visibility Wind Dir Wind Speed Gust Speed Precip Events Conditions
12:51 AM 30.9 °F - 24.1 °F 76% 30.25 in 10.0 mi Calm Calm - N/A   Clear
1:51 AM 30.0 °F 25.2 °F 23.0 °F 75% 30.25 in 10.0 mi North 4.6 mph - N/A   Overcast
2:51 AM 30.9 °F 25.2 °F 21.9 °F 69% 30.27 in 10.0 mi NNE 5.8 mph - N/A   Mostly Cloudy
3:51 AM 30.9 °F - 21.9 °F 69% 30.27 in 10.0 mi Calm Calm - N/A   Overcast
4:51 AM 30.9 °F - 21.9 °F 69% 30.30 in 10.0 mi Calm Calm - N/A   Overcast
5:51 AM 30.9 °F - 21.9 °F 69% 30.34 in 10.0 mi Calm Calm - N/A   Overcast
6:51 AM 28.9 °F 23.9 °F 21.0 °F 72% 30.35 in 10.0 mi North 4.6 mph - N/A   Clear
7:51 AM 30.0 °F 22.4 °F 21.0 °F 69% 30.39 in 10.0 mi NNW 8.1 mph - N/A   Mostly Cloudy
8:51 AM 30.9 °F 22.2 °F 19.9 °F 64% 30.43 in 10.0 mi NNW 10.4 mph - N/A   Overcast
9:51 AM 30.9 °F 21.7 °F 19.9 °F 64% 30.45 in 10.0 mi North 11.5 mph - N/A   Overcast
10:51 AM 34.0 °F 28.8 °F 19.9 °F 56% 30.44 in 10.0 mi NNW 5.8 mph - N/A   Clear
11:51 AM 36.0 °F 29.6 °F 19.0 °F 50% 30.43 in 10.0 mi NNW 8.1 mph - N/A   Overcast
12:51 PM 37.0 °F 31.6 °F 18.0 °F 46% 30.41 in 10.0 mi Variable 6.9 mph - N/A   Clear
1:51 PM 37.0 °F 30.4 °F 18.0 °F 46% 30.41 in 10.0 mi NNW 9.2 mph - N/A   Partly Cloudy
2:51 PM 37.0 °F 31.6 °F 18.0 °F 46% 30.42 in 10.0 mi NW 6.9 mph - N/A   Clear
3:51 PM 36.0 °F 30.3 °F 18.0 °F 48% 30.42 in 10.0 mi NW 6.9 mph - N/A   Partly Cloudy
4:51 PM 32.0 °F 27.5 °F 18.0 °F 56% 30.40 in 10.0 mi NNE 4.6 mph - N/A   Clear
5:51 PM 30.9 °F - 16.0 °F 54% 30.43 in 10.0 mi Calm Calm - N/A   Clear
6:51 PM 28.9 °F - 18.0 °F 64% 30.45 in 10.0 mi Calm Calm - N/A   Clear
7:51 PM 27.0 °F - 17.1 °F 66% 30.47 in 10.0 mi Calm Calm - N/A   Clear
8:51 PM 26.1 °F - 18.0 °F 71% 30.47 in 10.0 mi Calm Calm - N/A   Clear
9:51 PM 23.0 °F 15.8 °F 17.1 °F 78% 30.44 in 10.0 mi ENE 5.8 mph - N/A   Clear
10:51 PM 25.0 °F 20.7 °F 16.0 °F 69% 30.43 in 10.0 mi ENE 3.5 mph - N/A   Partly Cloudy
11:51 PM 21.9 °F - 17.1 °F 82% 30.42 in 10.0 mi Calm Calm - N/A   Clear